date,time,SUV Intensity [MED/Hr],UV Index,Daily total [MED],Since Last [MED]
14/03/2022,00:05:43,0.001,0.0,0.0,0.0
14/03/2022,00:06:43,0.001,0.0,0.0,0.0
14/03/2022,00:07:44,0.000,0.0,0.0,0.0
14/03/2022,00:08:43,0.000,0.0,0.0,0.0
14/03/2022,00:09:43,0.000,0.0,0.0,0.0
14/03/2022,00:10:44,0.000,0.0,0.0,0.0
14/03/2022,00:11:43,-0.001,0.0,0.0,0.0
14/03/2022,00:13:44,0.000,0.0,0.0,0.0
14/03/2022,00:14:44,0.000,0.0,0.0,0.0
14/03/2022,00:15:43,-0.000,0.0,0.0,0.0
14/03/2022,00:16:43,-0.000,0.0,0.0,0.0
14/03/2022,00:17:44,0.000,0.0,0.0,0.0
14/03/2022,00:18:43,0.000,0.0,0.0,0.0
14/03/2022,00:19:43,0.000,0.0,0.0,0.0
14/03/2022,00:20:43,0.000,0.0,0.0,0.0
14/03/2022,00:21:44,0.001,0.0,0.0,0.0
14/03/2022,00:22:52,0.000,0.0,0.0,0.0
14/03/2022,00:23:44,-0.000,0.0,0.0,0.0
14/03/2022,00:24:43,0.000,0.0,0.0,0.0
14/03/2022,00:25:44,0.000,0.0,0.0,0.0
14/03/2022,00:26:44,0.001,0.0,0.0,0.0
14/03/2022,00:27:45,0.000,0.0,0.0,0.0
14/03/2022,00:28:43,-0.000,0.0,0.0,0.0
14/03/2022,00:29:43,0.000,0.0,0.0,0.0
14/03/2022,00:30:44,0.000,0.0,0.0,0.0
14/03/2022,00:31:44,0.001,0.0,0.0,0.0
14/03/2022,00:32:43,-0.000,0.0,0.0,0.0
14/03/2022,00:33:43,0.000,0.0,0.0,0.0
14/03/2022,00:34:44,-0.000,0.0,0.0,0.0
14/03/2022,00:35:45,0.001,0.0,0.0,0.0
14/03/2022,00:36:43,-0.000,0.0,0.0,0.0
14/03/2022,00:37:44,0.000,0.0,0.0,0.0
14/03/2022,00:38:52,0.001,0.0,0.0,0.0
14/03/2022,00:39:44,0.001,0.0,0.0,0.0
14/03/2022,00:40:43,0.000,0.0,0.0,0.0
14/03/2022,00:41:44,-0.000,0.0,0.0,0.0
14/03/2022,00:42:43,0.000,0.0,0.0,0.0
14/03/2022,00:43:43,0.000,0.0,0.0,0.0
14/03/2022,00:44:44,0.000,0.0,0.0,0.0
14/03/2022,00:45:43,-0.000,0.0,0.0,0.0
14/03/2022,00:46:51,0.001,0.0,0.0,0.0
14/03/2022,00:47:43,0.001,0.0,0.0,0.0
14/03/2022,00:48:44,-0.000,0.0,0.0,0.0
14/03/2022,00:49:44,0.000,0.0,0.0,0.0
14/03/2022,00:50:43,0.000,0.0,0.0,0.0
14/03/2022,00:51:44,0.001,0.0,0.0,0.0
14/03/2022,00:52:44,0.000,0.0,0.0,0.0
14/03/2022,00:53:44,0.000,0.0,0.0,0.0
14/03/2022,00:54:43,-0.000,0.0,0.0,0.0
14/03/2022,00:55:44,-0.000,0.0,0.0,0.0
14/03/2022,00:56:52,0.000,0.0,0.0,0.0
14/03/2022,00:57:44,0.000,0.0,0.0,0.0
14/03/2022,00:58:43,0.001,0.0,0.0,0.0
14/03/2022,00:59:52,0.000,0.0,0.0,0.0
14/03/2022,01:00:44,0.000,0.0,0.0,0.0
14/03/2022,01:01:44,0.000,0.0,0.0,0.0
14/03/2022,01:02:52,0.000,0.0,0.0,0.0
14/03/2022,01:03:43,0.000,0.0,0.0,0.0
14/03/2022,01:04:44,0.001,0.0,0.0,0.0
14/03/2022,01:05:44,-0.000,0.0,0.0,0.0
14/03/2022,01:06:43,-0.000,0.0,0.0,0.0
14/03/2022,01:07:43,0.000,0.0,0.0,0.0
14/03/2022,01:08:43,0.000,0.0,0.0,0.0
14/03/2022,01:09:44,0.000,0.0,0.0,0.0
14/03/2022,01:10:43,0.000,0.0,0.0,0.0
14/03/2022,01:11:44,0.000,0.0,0.0,0.0
14/03/2022,01:12:52,0.001,0.0,0.0,0.0
14/03/2022,01:13:43,0.000,0.0,0.0,0.0
14/03/2022,01:14:43,0.000,0.0,0.0,0.0
14/03/2022,01:15:44,0.000,0.0,0.0,0.0
14/03/2022,01:16:44,0.001,0.0,0.0,0.0
14/03/2022,01:17:43,-0.000,0.0,0.0,0.0
14/03/2022,01:18:52,0.000,0.0,0.0,0.0
14/03/2022,01:19:43,0.000,0.0,0.0,0.0
14/03/2022,01:20:44,0.001,0.0,0.0,0.0
14/03/2022,01:21:44,0.002,0.0,0.0,0.0
14/03/2022,01:22:44,0.000,0.0,0.0,0.0
14/03/2022,01:23:44,-0.000,0.0,0.0,0.0
14/03/2022,01:24:43,0.000,0.0,0.0,0.0
14/03/2022,01:25:44,0.000,0.0,0.0,0.0
14/03/2022,01:26:44,0.001,0.0,0.0,0.0
14/03/2022,01:27:43,0.000,0.0,0.0,0.0
14/03/2022,01:28:44,0.000,0.0,0.0,0.0
14/03/2022,01:29:43,0.001,0.0,0.0,0.0
14/03/2022,01:30:51,0.000,0.0,0.0,0.0
14/03/2022,01:31:44,0.000,0.0,0.0,0.0
14/03/2022,01:32:44,0.000,0.0,0.0,0.0
14/03/2022,01:33:43,0.000,0.0,0.0,0.0
14/03/2022,01:34:44,0.000,0.0,0.0,0.0
14/03/2022,01:35:44,0.000,0.0,0.0,0.0
14/03/2022,01:36:52,0.001,0.0,0.0,0.0
14/03/2022,01:37:44,0.001,0.0,0.0,0.0
14/03/2022,01:38:43,0.000,0.0,0.0,0.0
14/03/2022,01:39:44,0.001,0.0,0.0,0.0
14/03/2022,01:40:44,0.000,0.0,0.0,0.0
14/03/2022,01:41:44,0.000,0.0,0.0,0.0
14/03/2022,01:42:43,0.000,0.0,0.0,0.0
14/03/2022,01:43:43,0.001,0.0,0.0,0.0
14/03/2022,01:44:44,0.001,0.0,0.0,0.0
14/03/2022,01:45:43,0.000,0.0,0.0,0.0
14/03/2022,01:46:52,0.000,0.0,0.0,0.0
14/03/2022,01:47:42,0.002,0.0,0.0,0.0
14/03/2022,01:48:44,0.000,0.0,0.0,0.0
14/03/2022,01:49:44,0.001,0.0,0.0,0.0
14/03/2022,01:50:43,0.001,0.0,0.0,0.0
14/03/2022,01:51:44,0.000,0.0,0.0,0.0
14/03/2022,01:52:44,0.000,0.0,0.0,0.0
14/03/2022,01:53:44,0.000,0.0,0.0,0.0
14/03/2022,01:54:44,0.001,0.0,0.0,0.0
14/03/2022,01:55:44,0.000,0.0,0.0,0.0
14/03/2022,01:56:52,0.001,0.0,0.0,0.0
14/03/2022,01:57:44,0.001,0.0,0.0,0.0
14/03/2022,01:58:43,0.000,0.0,0.0,0.0
14/03/2022,01:59:44,0.000,0.0,0.0,0.0
14/03/2022,02:00:44,0.000,0.0,0.0,0.0
14/03/2022,02:01:43,0.000,0.0,0.0,0.0
14/03/2022,02:02:44,0.000,0.0,0.0,0.0
14/03/2022,02:03:44,0.000,0.0,0.0,0.0
14/03/2022,02:04:43,0.000,0.0,0.0,0.0
14/03/2022,02:05:43,-0.000,0.0,0.0,0.0
14/03/2022,02:06:53,0.000,0.0,0.0,0.0
14/03/2022,02:07:59,0.000,0.0,0.0,0.0
14/03/2022,02:09:44,0.000,0.0,0.0,0.0
14/03/2022,02:10:52,0.000,0.0,0.0,0.0
14/03/2022,02:11:44,0.000,0.0,0.0,0.0
14/03/2022,02:12:43,0.000,0.0,0.0,0.0
14/03/2022,02:13:44,0.001,0.0,0.0,0.0
14/03/2022,02:14:44,0.000,0.0,0.0,0.0
14/03/2022,02:15:42,0.000,0.0,0.0,0.0
14/03/2022,02:16:44,0.000,0.0,0.0,0.0
14/03/2022,02:17:43,0.000,0.0,0.0,0.0
14/03/2022,02:18:43,0.002,0.0,0.0,0.0
14/03/2022,02:19:43,0.000,0.0,0.0,0.0
14/03/2022,02:20:43,0.001,0.0,0.0,0.0
14/03/2022,02:21:44,0.001,0.0,0.0,0.0
14/03/2022,02:22:44,-0.000,0.0,0.0,0.0
14/03/2022,02:23:44,-0.000,0.0,0.0,0.0
14/03/2022,02:24:44,-0.000,0.0,0.0,0.0
14/03/2022,02:25:44,0.000,0.0,0.0,0.0
14/03/2022,02:26:44,0.000,0.0,0.0,0.0
14/03/2022,02:27:52,0.001,0.0,0.0,0.0
14/03/2022,02:28:43,0.001,0.0,0.0,0.0
14/03/2022,02:29:45,0.000,0.0,0.0,0.0
14/03/2022,02:30:44,0.001,0.0,0.0,0.0
14/03/2022,02:31:44,0.001,0.0,0.0,0.0
14/03/2022,02:32:43,0.000,0.0,0.0,0.0
14/03/2022,02:33:44,0.000,0.0,0.0,0.0
14/03/2022,02:34:43,0.001,0.0,0.0,0.0
14/03/2022,02:35:44,0.002,0.0,0.0,0.0
14/03/2022,02:36:44,0.001,0.0,0.0,0.0
14/03/2022,02:37:52,0.001,0.0,0.0,0.0
14/03/2022,02:38:44,-0.001,0.0,0.0,0.0
14/03/2022,02:39:44,0.001,0.0,0.0,0.0
14/03/2022,02:40:44,0.000,0.0,0.0,0.0
14/03/2022,02:41:44,0.001,0.0,0.0,0.0
14/03/2022,02:42:44,0.000,0.0,0.0,0.0
14/03/2022,02:43:43,0.001,0.0,0.0,0.0
14/03/2022,02:44:44,0.001,0.0,0.0,0.0
14/03/2022,02:45:44,0.000,0.0,0.0,0.0
14/03/2022,02:46:44,0.001,0.0,0.0,0.0
14/03/2022,02:47:44,0.001,0.0,0.0,0.0
14/03/2022,02:48:44,0.000,0.0,0.0,0.0
14/03/2022,02:49:44,0.001,0.0,0.0,0.0
14/03/2022,02:50:43,0.001,0.0,0.0,0.0
14/03/2022,02:51:44,0.002,0.0,0.0,0.0
14/03/2022,02:52:44,0.001,0.0,0.0,0.0
14/03/2022,02:53:44,0.001,0.0,0.0,0.0
14/03/2022,02:54:43,0.001,0.0,0.0,0.0
14/03/2022,02:55:44,0.001,0.0,0.0,0.0
14/03/2022,02:56:44,0.001,0.0,0.0,0.0
14/03/2022,02:57:44,0.001,0.0,0.0,0.0
14/03/2022,02:58:53,0.001,0.0,0.0,0.0
14/03/2022,02:59:43,-0.000,0.0,0.0,0.0
14/03/2022,03:00:44,0.001,0.0,0.0,0.0
14/03/2022,03:01:52,0.000,0.0,0.0,0.0
14/03/2022,03:02:44,0.002,0.0,0.0,0.0
14/03/2022,03:03:44,0.000,0.0,0.0,0.0
14/03/2022,03:04:44,0.001,0.0,0.0,0.0
14/03/2022,03:05:44,0.001,0.0,0.0,0.0
14/03/2022,03:06:44,0.001,0.0,0.0,0.0
14/03/2022,03:07:43,0.001,0.0,0.0,0.0
14/03/2022,03:08:53,0.001,0.0,0.0,0.0
14/03/2022,03:09:44,-0.000,0.0,0.0,0.0
14/03/2022,03:10:44,0.001,0.0,0.0,0.0
14/03/2022,03:11:52,0.001,0.0,0.0,0.0
14/03/2022,03:12:44,0.001,0.0,0.0,0.0
14/03/2022,03:13:43,0.001,0.0,0.0,0.0
14/03/2022,03:14:44,0.001,0.0,0.0,0.0
14/03/2022,03:15:44,0.001,0.0,0.0,0.0
14/03/2022,03:16:44,0.001,0.0,0.0,0.0
14/03/2022,03:17:44,0.001,0.0,0.0,0.0
14/03/2022,03:18:52,0.001,0.0,0.0,0.0
14/03/2022,03:19:44,-0.000,0.0,0.0,0.0
14/03/2022,03:20:44,0.001,0.0,0.0,0.0
14/03/2022,03:21:44,0.000,0.0,0.0,0.0
14/03/2022,03:22:44,0.001,0.0,0.0,0.0
14/03/2022,03:23:43,0.000,0.0,0.0,0.0
14/03/2022,03:24:44,0.001,0.0,0.0,0.0
14/03/2022,03:25:43,0.002,0.0,0.0,0.0
14/03/2022,03:26:44,0.001,0.0,0.0,0.0
14/03/2022,03:27:44,0.001,0.0,0.0,0.0
14/03/2022,03:28:44,0.001,0.0,0.0,0.0
14/03/2022,03:29:44,0.000,0.0,0.0,0.0
14/03/2022,03:30:44,0.001,0.0,0.0,0.0
14/03/2022,03:31:44,0.001,0.0,0.0,0.0
14/03/2022,03:32:44,0.001,0.0,0.0,0.0
14/03/2022,03:33:44,0.001,0.0,0.0,0.0
14/03/2022,03:34:44,0.001,0.0,0.0,0.0
14/03/2022,03:35:45,0.001,0.0,0.0,0.0
14/03/2022,03:36:44,0.001,0.0,0.0,0.0
14/03/2022,03:37:44,0.000,0.0,0.0,0.0
14/03/2022,03:39:45,0.001,0.0,0.0,0.0
14/03/2022,03:40:45,0.002,0.0,0.0,0.0
14/03/2022,03:41:44,0.001,0.0,0.0,0.0
14/03/2022,03:42:44,0.000,0.0,0.0,0.0
14/03/2022,03:43:43,0.001,0.0,0.0,0.0
14/03/2022,03:44:44,0.000,0.0,0.0,0.0
14/03/2022,03:45:44,0.001,0.0,0.0,0.0
14/03/2022,03:46:44,0.002,0.0,0.0,0.0
14/03/2022,03:47:44,0.001,0.0,0.0,0.0
14/03/2022,03:48:44,0.002,0.0,0.0,0.0
14/03/2022,03:49:53,-0.000,0.0,0.0,0.0
14/03/2022,03:50:42,0.000,0.0,0.0,0.0
14/03/2022,03:51:44,0.001,0.0,0.0,0.0
14/03/2022,03:52:52,-0.000,0.0,0.0,0.0
14/03/2022,03:53:44,0.001,0.0,0.0,0.0
14/03/2022,03:54:44,0.000,0.0,0.0,0.0
14/03/2022,03:55:44,0.001,0.0,0.0,0.0
14/03/2022,03:56:43,0.000,0.0,0.0,0.0
14/03/2022,03:57:44,0.001,0.0,0.0,0.0
14/03/2022,03:58:45,0.001,0.0,0.0,0.0
14/03/2022,03:59:43,0.001,0.0,0.0,0.0
14/03/2022,04:00:44,0.000,0.0,0.0,0.0
14/03/2022,04:01:44,0.002,0.0,0.0,0.0
14/03/2022,04:02:44,0.001,0.0,0.0,0.0
14/03/2022,04:03:43,0.001,0.0,0.0,0.0
14/03/2022,04:04:44,0.001,0.0,0.0,0.0
14/03/2022,04:05:44,0.000,0.0,0.0,0.0
14/03/2022,04:06:44,0.002,0.0,0.0,0.0
14/03/2022,04:07:44,0.001,0.0,0.0,0.0
14/03/2022,04:08:44,0.000,0.0,0.0,0.0
14/03/2022,04:09:44,0.002,0.0,0.0,0.0
14/03/2022,04:10:52,0.000,0.0,0.0,0.0
14/03/2022,04:11:44,0.001,0.0,0.0,0.0
14/03/2022,04:12:44,0.001,0.0,0.0,0.0
14/03/2022,04:13:44,0.001,0.0,0.0,0.0
14/03/2022,04:14:44,0.001,0.0,0.0,0.0
14/03/2022,04:15:44,0.001,0.0,0.0,0.0
14/03/2022,04:16:44,0.001,0.0,0.0,0.0
14/03/2022,04:17:44,0.001,0.0,0.0,0.0
14/03/2022,04:18:44,0.000,0.0,0.0,0.0
14/03/2022,04:19:44,0.001,0.0,0.0,0.0
14/03/2022,04:20:53,0.001,0.0,0.0,0.0
14/03/2022,04:21:44,0.001,0.0,0.0,0.0
14/03/2022,04:22:44,0.001,0.0,0.0,0.0
14/03/2022,04:23:44,0.001,0.0,0.0,0.0
14/03/2022,04:24:44,0.001,0.0,0.0,0.0
14/03/2022,04:25:44,-0.001,0.0,0.0,0.0
14/03/2022,04:26:43,-0.000,0.0,0.0,0.0
14/03/2022,04:27:44,0.001,0.0,0.0,0.0
14/03/2022,04:28:43,0.001,0.0,0.0,0.0
14/03/2022,04:29:44,0.001,0.0,0.0,0.0
14/03/2022,04:30:44,0.001,0.0,0.0,0.0
14/03/2022,04:31:44,0.001,0.0,0.0,0.0
14/03/2022,04:32:44,0.001,0.0,0.0,0.0
14/03/2022,04:33:44,0.001,0.0,0.0,0.0
14/03/2022,04:34:44,-0.000,0.0,0.0,0.0
14/03/2022,04:35:44,0.001,0.0,0.0,0.0
14/03/2022,04:36:44,0.001,0.0,0.0,0.0
14/03/2022,04:37:43,0.001,0.0,0.0,0.0
14/03/2022,04:38:44,0.001,0.0,0.0,0.0
14/03/2022,04:39:44,0.002,0.0,0.0,0.0
14/03/2022,04:40:44,0.001,0.0,0.0,0.0
14/03/2022,04:41:44,0.000,0.0,0.0,0.0
14/03/2022,04:42:44,0.001,0.0,0.0,0.0
14/03/2022,04:43:44,0.001,0.0,0.0,0.0
14/03/2022,04:44:52,0.001,0.0,0.0,0.0
14/03/2022,04:45:44,0.001,0.0,0.0,0.0
14/03/2022,04:46:44,0.001,0.0,0.0,0.0
14/03/2022,04:47:53,0.001,0.0,0.0,0.0
14/03/2022,04:48:42,0.001,0.0,0.0,0.0
14/03/2022,04:49:44,0.000,0.0,0.0,0.0
14/03/2022,04:50:44,0.001,0.0,0.0,0.0
14/03/2022,04:51:44,0.001,0.0,0.0,0.0
14/03/2022,04:52:44,0.000,0.0,0.0,0.0
14/03/2022,04:53:44,0.001,0.0,0.0,0.0
14/03/2022,04:54:44,0.001,0.0,0.0,0.0
14/03/2022,04:55:44,0.001,0.0,0.0,0.0
14/03/2022,04:56:44,0.001,0.0,0.0,0.0
14/03/2022,04:57:45,0.001,0.0,0.0,0.0
14/03/2022,04:58:52,0.001,0.0,0.0,0.0
14/03/2022,04:59:44,0.001,0.0,0.0,0.0
14/03/2022,05:00:44,0.001,0.0,0.0,0.0
14/03/2022,05:01:44,0.002,0.0,0.0,0.0
14/03/2022,05:02:43,0.001,0.0,0.0,0.0
14/03/2022,05:03:44,0.001,0.0,0.0,0.0
14/03/2022,05:04:44,0.001,0.0,0.0,0.0
14/03/2022,05:05:44,0.000,0.0,0.0,0.0
14/03/2022,05:06:44,0.000,0.0,0.0,0.0
14/03/2022,05:07:44,0.001,0.0,0.0,0.0
14/03/2022,05:08:52,0.001,0.0,0.0,0.0
14/03/2022,05:09:44,0.001,0.0,0.0,0.0
14/03/2022,05:10:44,0.002,0.0,0.0,0.0
14/03/2022,05:11:52,0.001,0.0,0.0,0.0
14/03/2022,05:12:44,0.001,0.0,0.0,0.0
14/03/2022,05:13:44,0.001,0.0,0.0,0.0
14/03/2022,05:15:00,0.001,0.0,0.0,0.0
14/03/2022,05:16:53,0.001,0.0,0.0,0.0
14/03/2022,05:17:42,0.000,0.0,0.0,0.0
14/03/2022,05:18:44,0.001,0.0,0.0,0.0
14/03/2022,05:19:44,-0.000,0.0,0.0,0.0
14/03/2022,05:20:44,0.001,0.0,0.0,0.0
14/03/2022,05:21:44,0.001,0.0,0.0,0.0
14/03/2022,05:22:44,-0.000,0.0,0.0,0.0
14/03/2022,05:23:44,0.001,0.0,0.0,0.0
14/03/2022,05:24:44,0.002,0.0,0.0,0.0
14/03/2022,05:25:44,0.002,0.0,0.0,0.0
14/03/2022,05:26:44,0.001,0.0,0.0,0.0
14/03/2022,05:27:44,-0.000,0.0,0.0,0.0
14/03/2022,05:28:44,0.001,0.0,0.0,0.0
14/03/2022,05:29:44,0.001,0.0,0.0,0.0
14/03/2022,05:30:44,0.000,0.0,0.0,0.0
14/03/2022,05:31:43,0.001,0.0,0.0,0.0
14/03/2022,05:32:44,0.001,0.0,0.0,0.0
14/03/2022,05:33:44,0.001,0.0,0.0,0.0
14/03/2022,05:34:44,0.001,0.0,0.0,0.0
14/03/2022,05:35:44,0.000,0.0,0.0,0.0
14/03/2022,05:36:44,0.000,0.0,0.0,0.0
14/03/2022,05:37:44,0.001,0.0,0.0,0.0
14/03/2022,05:38:44,0.001,0.0,0.0,0.0
14/03/2022,05:39:44,0.001,0.0,0.0,0.0
14/03/2022,05:40:44,0.001,0.0,0.0,0.0
14/03/2022,05:41:44,0.001,0.0,0.0,0.0
14/03/2022,05:42:52,0.002,0.0,0.0,0.0
14/03/2022,05:43:44,0.001,0.0,0.0,0.0
14/03/2022,05:44:44,0.002,0.0,0.0,0.0
14/03/2022,05:45:43,0.001,0.0,0.0,0.0
14/03/2022,05:46:44,-0.000,0.0,0.0,0.0
14/03/2022,05:47:44,0.001,0.0,0.0,0.0
14/03/2022,05:48:44,0.000,0.0,0.0,0.0
14/03/2022,05:49:44,0.001,0.0,0.0,0.0
14/03/2022,05:50:53,0.001,0.0,0.0,0.0
14/03/2022,05:51:43,0.002,0.0,0.0,0.0
14/03/2022,05:52:53,0.001,0.0,0.0,0.0
14/03/2022,05:53:53,-0.000,0.0,0.0,0.0
14/03/2022,05:54:42,-0.000,0.0,0.0,0.0
14/03/2022,05:55:44,0.001,0.0,0.0,0.0
14/03/2022,05:56:44,0.000,0.0,0.0,0.0
14/03/2022,05:57:44,0.001,0.0,0.0,0.0
14/03/2022,05:58:44,0.000,0.0,0.0,0.0
14/03/2022,05:59:45,0.000,0.0,0.0,0.0
14/03/2022,06:00:52,0.001,0.0,0.0,0.0
14/03/2022,06:01:44,0.001,0.0,0.0,0.0
14/03/2022,06:02:45,0.002,0.0,0.0,0.0
14/03/2022,06:03:44,0.002,0.0,0.0,0.0
14/03/2022,06:04:44,0.001,0.0,0.0,0.0
14/03/2022,06:05:44,0.001,0.0,0.0,0.0
14/03/2022,06:06:44,0.001,0.0,0.0,0.0
14/03/2022,06:07:44,0.001,0.0,0.0,0.0
14/03/2022,06:08:45,0.002,0.0,0.0,0.0
14/03/2022,06:09:44,0.000,0.0,0.0,0.0
14/03/2022,06:10:44,0.001,0.0,0.0,0.0
14/03/2022,06:11:44,0.001,0.0,0.0,0.0
14/03/2022,06:12:44,0.001,0.0,0.0,0.0
14/03/2022,06:13:44,0.001,0.0,0.0,0.0
14/03/2022,06:14:45,0.002,0.0,0.0,0.0
14/03/2022,06:15:44,0.001,0.0,0.0,0.0
14/03/2022,06:16:44,0.001,0.0,0.0,0.0
14/03/2022,06:17:44,0.003,0.0,0.0,0.0
14/03/2022,06:18:44,0.001,0.0,0.0,0.0
14/03/2022,06:19:44,0.002,0.0,0.0,0.0
14/03/2022,06:20:44,0.001,0.0,0.0,0.0
14/03/2022,06:21:44,0.002,0.0,0.0,0.0
14/03/2022,06:22:45,0.002,0.0,0.0,0.0
14/03/2022,06:23:44,0.002,0.0,0.0,0.0
14/03/2022,06:24:52,0.003,0.0,0.0,0.0
14/03/2022,06:25:44,0.002,0.0,0.0,0.0
14/03/2022,06:26:44,0.003,0.0,0.0,0.0
14/03/2022,06:27:44,0.003,0.0,0.0,0.0
14/03/2022,06:28:44,0.003,0.0,0.0,0.0
14/03/2022,06:29:44,0.003,0.0,0.0,0.0
14/03/2022,06:30:44,0.003,0.0,0.0,0.0
14/03/2022,06:31:52,0.003,0.0,0.0,0.0
14/03/2022,06:32:44,0.003,0.0,0.0,0.0
14/03/2022,06:33:45,0.004,0.0,0.0,0.0
14/03/2022,06:34:53,0.005,0.0,0.0,0.0
14/03/2022,06:35:44,0.004,0.0,0.0,0.0
14/03/2022,06:36:44,0.004,0.0,0.0,0.0
14/03/2022,06:37:44,0.005,0.0,0.0,0.0
14/03/2022,06:38:44,0.005,0.0,0.0,0.0
14/03/2022,06:39:45,0.006,0.0,0.0,0.0
14/03/2022,06:40:44,0.006,0.0,0.0,0.0
14/03/2022,06:41:44,0.005,0.0,0.0,0.0
14/03/2022,06:42:44,0.006,0.0,0.0,0.0
14/03/2022,06:43:44,0.006,0.0,0.0,0.0
14/03/2022,06:44:44,0.006,0.0,0.0,0.0
14/03/2022,06:45:52,0.007,0.0,0.0,0.0
14/03/2022,06:46:45,0.007,0.0,0.001,0.001
14/03/2022,06:47:44,0.008,0.0,0.001,0.0
14/03/2022,06:48:44,0.008,0.0,0.001,0.0
14/03/2022,06:49:44,0.008,0.0,0.001,0.0
14/03/2022,06:51:36,0.008,0.0,0.001,0.0
14/03/2022,06:52:44,0.009,0.0,0.001,0.0
14/03/2022,06:53:44,0.010,0.0,0.002,0.001
14/03/2022,06:54:45,0.010,0.0,0.002,0.0
14/03/2022,06:55:53,0.011,0.0,0.002,0.0
14/03/2022,06:56:44,0.011,0.0,0.002,0.0
14/03/2022,06:57:44,0.012,0.0,0.002,0.0
14/03/2022,06:58:44,0.012,0.0,0.002,0.0
14/03/2022,06:59:44,0.013,0.0,0.003,0.001
14/03/2022,07:00:45,0.013,0.0,0.003,0.0
14/03/2022,07:01:44,0.013,0.0,0.003,0.0
14/03/2022,07:02:52,0.014,0.0,0.003,0.0
14/03/2022,07:03:44,0.014,0.0,0.004,0.001
14/03/2022,07:04:45,0.015,0.0,0.004,0.0
14/03/2022,07:05:53,0.014,0.0,0.004,0.0
14/03/2022,07:06:43,0.016,0.0,0.004,0.0
14/03/2022,07:07:44,0.016,0.0,0.005,0.001
14/03/2022,07:08:44,0.017,0.0,0.005,0.0
14/03/2022,07:09:44,0.018,0.0,0.005,0.0
14/03/2022,07:10:44,0.018,0.0,0.005,0.0
14/03/2022,07:11:44,0.018,0.0,0.006,0.001
14/03/2022,07:12:44,0.018,0.0,0.006,0.0
14/03/2022,07:13:44,0.020,0.0,0.006,0.0
14/03/2022,07:14:44,0.020,0.0,0.007,0.001
14/03/2022,07:15:44,0.021,0.0,0.007,0.0
14/03/2022,07:16:45,0.022,0.0,0.007,0.0
14/03/2022,07:17:44,0.022,0.0,0.008,0.001
14/03/2022,07:18:44,0.023,0.0,0.008,0.0
14/03/2022,07:19:44,0.024,0.0,0.009,0.001
14/03/2022,07:20:44,0.024,0.0,0.009,0.0
14/03/2022,07:21:45,0.025,0.0,0.009,0.0
14/03/2022,07:22:44,0.027,0.0,0.01,0.001
14/03/2022,07:23:53,0.026,0.0,0.01,0.0
14/03/2022,07:24:45,0.028,0.0,0.011,0.001
14/03/2022,07:25:44,0.028,0.0,0.011,0.0
14/03/2022,07:26:52,0.028,0.0,0.012,0.001
14/03/2022,07:27:44,0.029,0.0,0.012,0.0
14/03/2022,07:28:44,0.030,0.0,0.013,0.001
14/03/2022,07:29:44,0.031,0.0,0.013,0.0
14/03/2022,07:30:44,0.030,0.0,0.014,0.001
14/03/2022,07:31:45,0.032,0.0,0.014,0.0
14/03/2022,07:32:44,0.033,0.0,0.015,0.001
14/03/2022,07:33:52,0.034,0.0,0.015,0.0
14/03/2022,07:34:44,0.035,0.0,0.016,0.001
14/03/2022,07:35:44,0.037,0.0,0.016,0.0
14/03/2022,07:36:44,0.036,0.0,0.017,0.001
14/03/2022,07:37:44,0.037,0.0,0.018,0.001
14/03/2022,07:38:45,0.038,0.0,0.018,0.0
14/03/2022,07:39:45,0.040,0.0,0.019,0.001
14/03/2022,07:40:46,0.040,0.0,0.02,0.001
14/03/2022,07:41:44,0.041,0.0,0.02,0.0
14/03/2022,07:42:44,0.043,0.0,0.021,0.001
14/03/2022,07:43:53,0.045,0.0,0.022,0.001
14/03/2022,07:44:44,0.044,0.0,0.022,0.0
14/03/2022,07:45:44,0.046,0.0,0.023,0.001
14/03/2022,07:46:44,0.047,0.0,0.024,0.001
14/03/2022,07:47:44,0.047,0.0,0.025,0.001
14/03/2022,07:48:45,0.049,0.0,0.025,0.0
14/03/2022,07:49:44,0.049,0.0,0.026,0.001
14/03/2022,07:50:44,0.050,0.0,0.027,0.001
14/03/2022,07:51:45,0.051,0.0,0.028,0.001
14/03/2022,07:52:45,0.053,0.0,0.029,0.001
14/03/2022,07:53:44,0.053,0.0,0.03,0.001
14/03/2022,07:54:44,0.053,0.0,0.031,0.001
14/03/2022,07:55:45,0.054,0.0,0.031,0.0
14/03/2022,07:56:44,0.055,0.0,0.032,0.001
14/03/2022,07:57:52,0.056,0.0,0.033,0.001
14/03/2022,07:58:44,0.055,0.0,0.034,0.001
14/03/2022,07:59:44,0.057,0.0,0.035,0.001
14/03/2022,08:00:44,0.058,0.0,0.036,0.001
14/03/2022,08:01:44,0.057,0.0,0.037,0.001
14/03/2022,08:02:45,0.059,0.0,0.038,0.001
14/03/2022,08:03:44,0.061,0.0,0.039,0.001
14/03/2022,08:04:52,0.062,0.0,0.04,0.001
14/03/2022,08:05:44,0.063,0.0,0.041,0.001
14/03/2022,08:06:46,0.065,0.0,0.042,0.001
14/03/2022,08:07:45,0.067,0.0,0.043,0.001
14/03/2022,08:08:44,0.068,0.0,0.044,0.001
14/03/2022,08:09:44,0.070,0.0,0.046,0.002
14/03/2022,08:10:45,0.071,0.0,0.047,0.001
14/03/2022,08:11:44,0.071,0.0,0.048,0.001
14/03/2022,08:12:44,0.073,0.0,0.049,0.001
14/03/2022,08:13:45,0.074,0.0,0.05,0.001
14/03/2022,08:14:53,0.077,0.0,0.052,0.002
14/03/2022,08:15:44,0.080,0.0,0.053,0.001
14/03/2022,08:16:44,0.084,0.0,0.054,0.001
14/03/2022,08:17:44,0.085,0.0,0.056,0.002
14/03/2022,08:18:44,0.088,0.0,0.057,0.001
14/03/2022,08:19:44,0.089,0.0,0.059,0.002
14/03/2022,08:20:44,0.092,0.0,0.06,0.001
14/03/2022,08:21:44,0.093,0.0,0.062,0.002
14/03/2022,08:22:52,0.095,0.0,0.063,0.001
14/03/2022,08:23:44,0.096,0.0,0.065,0.002
14/03/2022,08:24:52,0.099,0.0,0.067,0.002
14/03/2022,08:25:53,0.101,0.0,0.068,0.001
14/03/2022,08:26:45,0.103,0.0,0.07,0.002
14/03/2022,08:27:44,0.104,0.0,0.072,0.002
14/03/2022,08:28:46,0.107,0.0,0.073,0.001
14/03/2022,08:29:45,0.107,0.0,0.075,0.002
14/03/2022,08:30:44,0.109,0.0,0.077,0.002
14/03/2022,08:31:44,0.113,0.0,0.079,0.002
14/03/2022,08:32:44,0.115,0.0,0.081,0.002
14/03/2022,08:33:44,0.118,0.0,0.083,0.002
14/03/2022,08:34:44,0.118,0.0,0.085,0.002
14/03/2022,08:35:53,0.120,0.0,0.087,0.002
14/03/2022,08:36:44,0.121,0.0,0.088,0.001
14/03/2022,08:37:44,0.122,0.0,0.091,0.003
14/03/2022,08:38:52,0.123,0.0,0.093,0.002
14/03/2022,08:39:44,0.122,0.0,0.095,0.002
14/03/2022,08:40:45,0.122,0.0,0.097,0.002
14/03/2022,08:41:45,0.119,0.0,0.099,0.002
14/03/2022,08:42:45,0.118,0.0,0.101,0.002
14/03/2022,08:43:44,0.117,0.0,0.103,0.002
14/03/2022,08:44:44,0.117,0.0,0.105,0.002
14/03/2022,08:45:44,0.118,0.0,0.107,0.002
14/03/2022,08:46:44,0.119,0.0,0.109,0.002
14/03/2022,08:47:45,0.118,0.0,0.11,0.001
14/03/2022,08:48:53,0.120,0.0,0.113,0.003
14/03/2022,08:49:44,0.121,0.0,0.114,0.001
14/03/2022,08:50:44,0.121,0.0,0.116,0.002
14/03/2022,08:51:46,0.122,0.0,0.119,0.003
14/03/2022,08:52:44,0.123,0.0,0.121,0.002
14/03/2022,08:53:44,0.124,0.0,0.123,0.002
14/03/2022,08:54:45,0.125,0.0,0.125,0.002
14/03/2022,08:55:44,0.126,0.0,0.127,0.002
14/03/2022,08:56:44,0.127,0.0,0.129,0.002
14/03/2022,08:57:44,0.129,0.0,0.131,0.002
14/03/2022,08:58:52,0.130,0.0,0.133,0.002
14/03/2022,08:59:44,0.133,0.0,0.135,0.002
14/03/2022,09:00:45,0.135,0.0,0.138,0.003
14/03/2022,09:01:53,0.138,0.0,0.14,0.002
14/03/2022,09:02:44,0.143,0.0,0.142,0.002
14/03/2022,09:03:44,0.146,0.0,0.145,0.003
14/03/2022,09:04:44,0.149,0.0,0.147,0.002
14/03/2022,09:05:44,0.154,0.0,0.15,0.003
14/03/2022,09:06:44,0.161,0.0,0.152,0.002
14/03/2022,09:07:44,0.164,0.0,0.155,0.003
14/03/2022,09:08:45,0.172,0.0,0.158,0.003
14/03/2022,09:09:44,0.174,0.0,0.161,0.003
14/03/2022,09:10:45,0.178,0.0,0.164,0.003
14/03/2022,09:11:53,0.180,0.0,0.167,0.003
14/03/2022,09:12:44,0.187,0.0,0.17,0.003
14/03/2022,09:13:44,0.196,0.0,0.173,0.003
14/03/2022,09:14:45,0.190,0.0,0.176,0.003
14/03/2022,09:15:45,0.186,0.0,0.179,0.003
14/03/2022,09:16:45,0.187,0.0,0.182,0.003
14/03/2022,09:17:44,0.210,0.0,0.186,0.004
14/03/2022,09:18:44,0.195,0.0,0.189,0.003
14/03/2022,09:19:44,0.192,0.0,0.192,0.003
14/03/2022,09:20:45,0.191,0.0,0.195,0.003
14/03/2022,09:21:53,0.205,0.0,0.199,0.004
14/03/2022,09:23:44,0.239,1.0,0.206,0.007
14/03/2022,09:24:44,0.243,1.0,0.21,0.004
14/03/2022,09:25:44,0.241,1.0,0.214,0.004
14/03/2022,09:26:45,0.250,1.0,0.218,0.004
14/03/2022,09:27:44,0.256,1.0,0.222,0.004
14/03/2022,09:28:44,0.253,1.0,0.227,0.005
14/03/2022,09:29:53,0.259,1.0,0.231,0.004
14/03/2022,09:30:43,0.251,1.0,0.235,0.004
14/03/2022,09:31:45,0.259,1.0,0.239,0.004
14/03/2022,09:32:44,0.263,1.0,0.244,0.005
14/03/2022,09:33:47,0.268,1.0,0.248,0.004
14/03/2022,09:34:45,0.272,1.0,0.253,0.005
14/03/2022,09:35:52,0.278,1.0,0.258,0.005
14/03/2022,09:36:44,0.283,1.0,0.262,0.004
14/03/2022,09:37:44,0.287,1.0,0.267,0.005
14/03/2022,09:38:44,0.291,1.0,0.271,0.004
14/03/2022,09:39:54,0.295,1.0,0.277,0.006
14/03/2022,09:40:43,0.296,1.0,0.281,0.004
14/03/2022,09:41:45,0.297,1.0,0.286,0.005
14/03/2022,09:42:45,0.304,1.0,0.291,0.005
14/03/2022,09:43:44,0.307,1.0,0.296,0.005
14/03/2022,09:44:44,0.306,1.0,0.301,0.005
14/03/2022,09:45:52,0.313,1.0,0.307,0.006
14/03/2022,09:46:44,0.318,1.0,0.312,0.005
14/03/2022,09:47:45,0.315,1.0,0.317,0.005
14/03/2022,09:48:53,0.298,1.0,0.323,0.006
14/03/2022,09:49:45,0.317,1.0,0.327,0.004
14/03/2022,09:50:44,0.318,1.0,0.332,0.005
14/03/2022,09:51:44,0.307,1.0,0.338,0.006
14/03/2022,09:52:44,0.303,1.0,0.343,0.005
14/03/2022,09:53:44,0.310,1.0,0.348,0.005
14/03/2022,09:54:45,0.317,1.0,0.353,0.005
14/03/2022,09:55:53,0.333,1.0,0.359,0.006
14/03/2022,09:56:45,0.338,1.0,0.364,0.005
14/03/2022,09:57:44,0.330,1.0,0.37,0.006
14/03/2022,09:58:52,0.337,1.0,0.376,0.006
14/03/2022,09:59:44,0.337,1.0,0.381,0.005
14/03/2022,10:00:45,0.348,1.0,0.386,0.005
14/03/2022,10:01:44,0.351,1.0,0.392,0.006
14/03/2022,10:02:44,0.358,1.0,0.398,0.006
14/03/2022,10:03:45,0.358,1.0,0.404,0.006
14/03/2022,10:04:45,0.365,1.0,0.41,0.006
14/03/2022,10:05:44,0.372,1.0,0.416,0.006
14/03/2022,10:06:44,0.374,1.0,0.422,0.006
14/03/2022,10:07:45,0.381,1.0,0.429,0.007
14/03/2022,10:08:45,0.385,1.0,0.435,0.006
14/03/2022,10:09:45,0.386,1.0,0.442,0.007
14/03/2022,10:10:53,0.389,1.0,0.449,0.007
14/03/2022,10:11:44,0.391,1.0,0.455,0.006
14/03/2022,10:12:44,0.393,1.0,0.461,0.006
14/03/2022,10:13:45,0.393,1.0,0.468,0.007
14/03/2022,10:14:45,0.396,1.0,0.474,0.006
14/03/2022,10:16:37,0.385,1.0,0.486,0.012
14/03/2022,10:17:44,0.406,1.0,0.494,0.008
14/03/2022,10:18:44,0.412,1.0,0.501,0.007
14/03/2022,10:19:44,0.416,1.0,0.508,0.007